Vorticity
15 -16 18 26 25 -1 1 3 4 4 8 15 6 1 3 4 3 4 2 2 0 3 5 6 4 6 7 10 10 10 9 6 5 7 7 6 8 8 5 5 7 7 5
22 44 41 17 2 -1 3 4 2 12 9 3 2 3 4 4 4 0 1 2 6 7 2 1 8 10 9 10 8 7 6 6 8 10 10 12 12 11 10 9 6 6 7
19 54 18 -0 2 3 4 4 12 6 2 3 3 2 4 5 6 3 3 9 5 4 5 3 6 6 8 7 7 8 8 7 12 12 15 14 10 8 7 8 9 8 7
35 3 0 0 5 5 8 13 5 1 1 2 2 3 -0 3 6 6 7 4 5 5 4 3 2 2 0 3 4 7 10 12 11 12 9 8 4 3 3 2 2 2 3
2 3 4 0 9 11 8 3 0 1 3 3 1 -1 4 1 4 -0 2 4 3 1 1 -1 4 1 3 9 7 1 2 14 14 9 7 5 2 3 5 6 7 7 7
11 8 2 7 5 8 3 0 1 0 -2 3 8 7 6 8 0 0 -0 8 1 4 5 3 7 1 2 7 -4 9 13 19 15 11 5 3 4 4 3 5 8 9 8
5 15 13 8 7 3 1 1 -0 -0 -0 -3 -2 0 6 -0 7 3 8 2 4 3 -0 -0 7 10 10 -6 9 8 20 8 6 5 5 7 8 9 9 7 5 5 5
6 14 12 4 2 2 -0 1 -1 -0 2 -1 6 4 -1 -5 -5 -3 -2 2 1 5 6 1 6 15 -3 3 12 15 15 5 6 6 7 6 3 7 6 5 5 6 8
3 7 13 -3 1 0 -5 0 6 2 4 7 11 8 7 -0 4 -1 -4 -5 -1 9 -1 -0 8 15 -10 4 4 11 6 3 4 4 4 3 -1 8 6 6 8 9 8
7 11 3 13 46 3 3 16 5 11 6 9 11 -0 0 -3 -3 -2 9 4 4 2 5 9 9 13 11 4 3 10 -0 4 2 6 1 3 11 8 8 8 9 10 8
4 2 5 7 3 0 8 4 4 -6 3 -14 7 7 1 4 -1 5 -1 1 4 10 11 9 7 9 11 2 -7 8 6 2 5 -1 12 8 10 7 7 9 8 10 17
5 3 1 3 4 3 6 17 16 9 25 18 -22 2 14 -2 7 -2 -4 -7 4 13 12 12 13 5 -0 10 9 5 5 -0 11 8 12 8 9 9 10 11 22 27 32
3 6 7 6 4 5 6 7 6 7 3 1 7 10 7 -1 -3 -6 -2 2 15 7 10 25 1 1 5 9 0 4 3 12 10 7 7 8 10 12 19 28 24 25 23
2 9 3 10 16 16 23 11 1 6 46 -15 2 11 17 -11 5 0 4 7 9 5 11 14 -3 6 7 1 4 16 10 6 8 9 9 7 9 24 22 23 21 20 22
6 4 8 2 3 10 15 -3 2 3 2 3 6 -11 7 -3 2 8 2 12 10 11 11 10 6 6 4 14 9 9 7 7 7 7 10 16 30 26 19 18 16 23 19
4 5 3 3 10 5 7 6 8 8 3 7 12 15 9 11 12 14 12 9 9 10 12 8 8 12 11 11 9 7 7 8 9 10 21 27 19 13 10 13 21 18 14
3 5 6 9 10 9 7 11 10 -8 8 9 9 8 9 10 10 9 8 9 15 8 12 12 14 13 9 9 7 7 6 8 9 22 18 18 14 11 13 18 20 15 13
4 5 6 6 8 9 9 9 10 11 6 6 9 10 8 8 10 9 12 12 11 9 8 5 7 12 12 8 7 5 8 10 20 17 18 19 16 15 18 21 16 13 13
5 7 6 6 7 8 7 7 6 6 6 8 7 7 9 9 11 18 11 6 2 3 4 3 4 7 10 9 8 11 19 22 15 18 26 18 17 18 18 19 12 12 13
7 8 6 9 8 8 6 4 4 6 7 7 8 8 8 12 14 7 3 4 4 5 6 6 6 7 10 14 15 22 16 14 15 20 18 16 16 18 19 14 12 12 12
9 8 9 7 6 5 4 4 5 7 8 7 8 9 13 13 6 0 1 -0 -1 2 8 9 9 9 13 15 20 15 16 18 16 12 15 16 17 16 17 12 12 13 10
10 8 6 5 5 4 5 5 7 7 8 8 8 12 13 6 0 3 2 2 3 7 7 10 9 11 17 16 21 16 17 15 12 17 16 15 17 17 14 12 12 11 8
7 5 5 4 4 4 6 7 8 9 10 9 11 13 10 3 3 1 3 3 4 9 12 10 8 18 16 23 18 17 13 13 21 16 12 14 19 15 13 12 12 10 6
4 4 5 4 4 6 8 9 8 11 9 11 15 11 8 6 3 6 5 3 5 10 9 8 17 22 23 19 20 18 15 20 23 16 18 14 15 14 12 13 11 9 6
5 4 3 3 4 10 11 10 10 8 11 15 11 8 7 8 6 3 4 5 6 11 9 18 23 28 20 22 25 24 22 18 14 21 13 13 14 13 13 11 10 9 8
3 4 4 7 9 7 10 11 9 11 10 10 8 6 6 5 5 4 4 6 9 14 18 21 30 25 22 29 29 23 32 2 14 17 9 10 13 12 13 10 11 8 9
Height
5772 5773 5774 5777 5781 5785 5791 5793 5794 5795 5796 5798 5798 5800 5801 5800 5799 5800 5799 5797 5795 5792 5789 5787 5785 5783 5780 5777 5775 5772 5769 5766 5763 5760 5757 5755 5754 5753 5752 5751 5749 5747 5748
5767 5770 5773 5775 5779 5785 5788 5790 5790 5791 5793 5794 5797 5796 5796 5794 5793 5793 5791 5790 5789 5786 5784 5782 5780 5777 5774 5771 5767 5763 5760 5757 5754 5751 5748 5746 5744 5742 5740 5739 5738 5738 5736
5765 5768 5772 5774 5778 5782 5786 5787 5787 5788 5790 5791 5792 5792 5790 5789 5788 5787 5788 5785 5782 5781 5779 5776 5773 5771 5767 5763 5759 5755 5752 5749 5745 5742 5740 5738 5736 5734 5732 5730 5727 5725 5724
5765 5769 5772 5774 5777 5780 5783 5784 5785 5786 5787 5788 5787 5787 5785 5783 5782 5781 5778 5778 5777 5775 5773 5768 5765 5762 5758 5754 5750 5745 5742 5738 5734 5731 5730 5728 5726 5725 5723 5721 5719 5717 5715
5766 5769 5772 5774 5774 5777 5779 5781 5782 5783 5783 5783 5782 5780 5779 5779 5777 5775 5772 5769 5766 5765 5764 5759 5754 5750 5747 5744 5740 5735 5731 5726 5723 5720 5717 5715 5713 5711 5709 5707 5705 5704 5702
5765 5768 5771 5771 5772 5774 5775 5777 5778 5779 5778 5777 5774 5775 5773 5770 5769 5768 5764 5762 5759 5754 5750 5748 5744 5742 5739 5735 5731 5725 5719 5713 5710 5707 5704 5701 5698 5695 5692 5691 5689 5687 5686
5765 5767 5767 5769 5771 5772 5773 5773 5773 5773 5772 5771 5769 5767 5766 5764 5762 5760 5757 5753 5750 5747 5743 5739 5734 5730 5727 5722 5718 5712 5708 5702 5696 5694 5691 5687 5682 5678 5675 5671 5668 5666 5665
5762 5765 5766 5766 5768 5769 5769 5769 5767 5767 5766 5763 5761 5759 5757 5756 5754 5751 5747 5745 5742 5736 5731 5727 5724 5718 5712 5707 5702 5697 5693 5687 5681 5676 5672 5668 5663 5659 5655 5651 5647 5643 5640
5759 5762 5764 5764 5764 5765 5764 5763 5762 5761 5758 5756 5754 5752 5748 5746 5743 5739 5736 5731 5728 5725 5720 5714 5708 5704 5698 5693 5688 5684 5679 5672 5665 5659 5654 5648 5643 5638 5632 5627 5622 5617 5612
5760 5760 5760 5759 5758 5759 5758 5755 5755 5752 5751 5748 5746 5745 5739 5735 5731 5729 5722 5718 5714 5708 5703 5699 5694 5688 5682 5677 5672 5666 5660 5653 5646 5641 5635 5628 5621 5615 5608 5601 5594 5587 5581
5756 5756 5756 5757 5755 5754 5752 5749 5749 5746 5743 5740 5738 5734 5730 5726 5721 5717 5713 5707 5700 5695 5689 5683 5678 5673 5669 5662 5656 5651 5644 5636 5629 5623 5614 5605 5598 5591 5583 5574 5565 5557 5549
5752 5753 5752 5751 5749 5748 5746 5743 5738 5736 5732 5729 5726 5724 5721 5716 5710 5705 5700 5695 5689 5682 5674 5666 5660 5656 5651 5645 5638 5635 5628 5620 5609 5600 5591 5582 5573 5564 5556 5547 5537 5527 5516
5747 5747 5745 5744 5742 5739 5737 5735 5732 5728 5726 5724 5720 5716 5711 5705 5699 5693 5686 5681 5676 5670 5662 5655 5646 5638 5632 5627 5623 5620 5614 5602 5590 5580 5569 5558 5549 5539 5530 5521 5510 5499 5491
5741 5741 5740 5738 5735 5732 5729 5726 5723 5720 5716 5713 5711 5706 5701 5694 5687 5681 5673 5668 5663 5657 5649 5643 5633 5622 5612 5606 5601 5595 5592 5583 5571 5560 5550 5540 5527 5516 5507 5499 5488 5480 5472
5736 5735 5733 5731 5728 5725 5722 5719 5716 5712 5710 5706 5702 5696 5690 5683 5677 5669 5662 5654 5646 5642 5638 5630 5618 5607 5597 5586 5581 5573 5565 5558 5550 5539 5528 5516 5503 5493 5485 5478 5469 5462 5456
5727 5725 5723 5721 5718 5716 5712 5709 5706 5703 5700 5695 5691 5685 5679 5672 5665 5656 5649 5641 5632 5626 5622 5613 5605 5593 5582 5570 5556 5549 5542 5535 5526 5515 5504 5494 5484 5477 5468 5460 5451 5445 5441
5720 5718 5715 5713 5710 5707 5703 5700 5696 5692 5688 5683 5678 5671 5664 5657 5650 5642 5634 5625 5617 5608 5602 5601 5590 5580 5566 5553 5543 5530 5520 5513 5507 5497 5486 5477 5467 5460 5454 5446 5438 5432 5429
5711 5708 5707 5704 5701 5698 5695 5691 5688 5683 5677 5671 5665 5658 5650 5642 5635 5628 5621 5612 5603 5593 5583 5580 5574 5562 5550 5537 5523 5512 5502 5490 5482 5476 5465 5457 5451 5444 5438 5431 5425 5421 5417
5703 5700 5697 5694 5690 5687 5684 5680 5675 5670 5663 5657 5651 5643 5636 5627 5620 5612 5604 5596 5588 5579 5567 5555 5551 5542 5529 5516 5502 5489 5479 5467 5462 5455 5451 5442 5435 5429 5424 5417 5413 5409 5406
5694 5691 5688 5685 5681 5678 5673 5668 5663 5658 5652 5644 5636 5628 5620 5612 5605 5597 5590 5580 5571 5561 5550 5537 5527 5517 5508 5498 5481 5467 5457 5448 5443 5436 5431 5427 5419 5414 5410 5406 5402 5400 5397
5685 5682 5679 5675 5672 5667 5662 5657 5651 5645 5638 5631 5622 5614 5605 5597 5590 5583 5576 5567 5555 5544 5533 5519 5509 5495 5484 5472 5461 5449 5437 5431 5427 5421 5414 5413 5406 5401 5398 5394 5392 5389 5387
5676 5673 5669 5666 5661 5656 5650 5644 5638 5631 5623 5616 5608 5600 5592 5584 5575 5567 5558 5549 5538 5525 5515 5500 5489 5476 5467 5453 5441 5430 5421 5414 5407 5408 5399 5398 5393 5390 5387 5384 5382 5379 5377
5666 5663 5658 5654 5650 5644 5638 5631 5624 5617 5609 5602 5594 5586 5578 5569 5560 5551 5543 5533 5522 5509 5492 5478 5463 5455 5442 5435 5424 5414 5407 5400 5395 5392 5388 5385 5381 5379 5376 5374 5372 5370 5368
5655 5651 5647 5643 5638 5633 5624 5616 5609 5602 5595 5586 5579 5571 5564 5555 5543 5532 5523 5515 5505 5491 5476 5459 5443 5432 5422 5415 5404 5396 5391 5386 5383 5381 5374 5373 5370 5369 5366 5365 5363 5362 5360
5645 5641 5636 5630 5625 5619 5612 5602 5595 5589 5582 5574 5565 5556 5547 5538 5526 5513 5502 5491 5483 5471 5457 5442 5425 5411 5400 5392 5387 5379 5375 5372 5371 5369 5364 5360 5361 5359 5358 5357 5355 5353 5351
5633 5627 5621 5615 5609 5604 5597 5587 5580 5573 5566 5558 5550 5541 5530 5519 5507 5494 5480 5467 5458 5447 5434 5421 5408 5392 5380 5373 5367 5364 5361 5360 5358 5357 5354 5351 5351 5349 5350 5348 5347 5345 5343